Flag for Norway Weather past 2 weeks in Sarpsborg, Norway

Now
63 °F

Sunny.


Feels Like: 63 °F
Forecast: 54 / 58 °F
Wind: 2 mph from Northeast

Location: Rygge

Current Time: Aug 29, 2014 at 7:04:59 PM

Latest Report: Aug 29, 2014 at 6:20 PM


Visibility: 10 mi

Pressure: 29.95 "Hg

Humidity: 68%

Dew point: 52 °F

Location of SarpsborgLocation

Historic Weather in Sarpsborg — Graph

°F

Sarpsborg temperature yesterday

Maximum temperature yesterday: 70 °F (at 5:20 PM)
Minimum temperature yesterday: 54 °F (at 10:50 PM)
Average temperature yesterday: 61 °F

Past Weeks' High & Low Weather Summary

 TemperatureHumidityPressure
High72 °F (Aug 15, 5:50 PM)100% (Aug 14, 10:20 PM)29.98 "Hg (Aug 14, 10:20 PM)
Low45 °F (Aug 24, 6:50 AM)38% (Aug 27, 4:20 PM)29.18 "Hg (Aug 18, 12:50 PM)
Average58 °F78%29.62 "Hg
* Reported Aug 14 5:20 PM — Aug 29 5:50 PM, Sarpsborg, Weather by CustomWeather, © 2014

Note: Actual official high and low records may vary slightly from our data, if they occured in-between our weather recording intervals... More about our weather records

Advertising

Sarpsborg weather history for previous 24 hours

 ConditionsComfort  
Time TempWeatherWind HumidityBarometerVisibility
5:50 PM
Aug 29
64 °FSunny.1 mph56%29.95 "Hg10 mi
5:20 PM63 °FOvercast.6 mph64%29.95 "HgN/A
4:50 PM63 °FSunny.6 mph68%29.95 "Hg10 mi
4:20 PM64 °FScattered showers. Broken clouds.5 mph64%29.95 "HgN/A
3:50 PM64 °FBroken clouds.6 mph64%29.95 "HgN/A
3:20 PM64 °FPartly sunny.7 mph68%29.95 "HgN/A
2:50 PM66 °FBroken clouds.2 mph64%29.95 "HgN/A
2:20 PM66 °FScattered clouds.7 mph64%29.95 "HgN/A
1:50 PM64 °FScattered clouds.2 mph68%29.95 "HgN/A
1:20 PM66 °FScattered clouds.3 mph60%29.95 "HgN/A
12:50 PM68 °FScattered clouds.2 mph60%29.98 "HgN/A
12:20 PM64 °FPassing clouds.3 mph64%29.98 "HgN/A
11:50 AM66 °FSunny.3 mph64%29.98 "Hg10 mi
11:20 AM64 °FPassing clouds.5 mph64%29.98 "HgN/A
10:50 AM64 °FPassing clouds.6 mph64%29.98 "HgN/A
10:20 AM63 °FPassing clouds.3 mph73%29.98 "HgN/A
9:50 AM61 °FSunny.2 mph77%29.98 "Hg10 mi
9:20 AM57 °FSunny.2 mph82%29.98 "Hg10 mi
8:50 AM54 °FSunny.3 mph88%29.98 "Hg10 mi
8:20 AM52 °FSunny.2 mph94%29.98 "Hg10 mi
7:50 AM50 °FSunny.2 mph94%29.98 "Hg10 mi
7:20 AM50 °FSunny.No wind94%29.98 "Hg10 mi
6:50 AM48 °FPassing clouds.2 mph100%29.98 "HgN/A
6:20 AM48 °FClear.3 mph94%29.98 "Hg10 mi
5:50 AM46 °FPassing clouds.2 mph100%29.98 "HgN/A
5:20 AM46 °FOvercast.2 mph100%29.98 "HgN/A
4:50 AM46 °FPassing clouds.1 mph100%29.98 "HgN/A
4:20 AM46 °FCool.1 mph100%29.98 "HgN/A
3:50 AM46 °FCool.1 mph100%29.98 "HgN/A
3:20 AM48 °FFog.2 mph94%29.98 "Hg2 mi
2:50 AM48 °FCool.3 mph100%29.98 "HgN/A
2:20 AM48 °FCool.3 mph100%29.98 "HgN/A
1:50 AM52 °FClear.2 mph94%29.98 "Hg10 mi
1:20 AM50 °FClear.3 mph94%29.98 "Hg10 mi
12:50 AM52 °FClear.1 mph88%29.98 "Hg10 mi
12:20 AM52 °FClear.2 mph88%29.98 "Hg10 mi
11:50 PM
Aug 28
54 °FClear.3 mph88%29.98 "Hg10 mi
11:20 PM54 °FClear.3 mph82%29.98 "Hg10 mi
10:50 PM54 °FClear.2 mph82%29.98 "Hg10 mi
10:20 PM57 °FClear.1 mph72%29.98 "Hg10 mi
9:50 PM57 °FClear.2 mph72%29.98 "Hg10 mi
9:20 PM61 °FSunny.2 mph59%29.98 "Hg10 mi
8:50 PM63 °FSunny.3 mph56%29.98 "Hg10 mi
8:20 PM63 °FSunny.5 mph56%29.95 "Hg10 mi
7:50 PM64 °FSunny.6 mph52%29.95 "Hg10 mi
7:20 PM64 °FSunny.8 mph52%29.95 "Hg10 mi
Weather by CustomWeather, © 2014

See weather overviewHow to use our weather pages